Date String (YYYY-MM-DD hh:mm:ss) UTC,Instrument flags,absolute air pressure of the measurement (hPa),sample flow rate (lpm),inlet stack bypass flow (lpm),air temperature of the measurement (°C),ambient temperature measured by the external sensor (°C),aerosol sample conditioner tube jacket temperature (°C),OPC LED temperature (°C),internal box temperature (°C),relative humidity of the measurement (%),span deviation,mass concentration of particles derived from Lorenz-Mie calculation of OPC scattering (μg/m³),mass concentration of particles derived from Lorenz-Mie calculation of OPC scattering (μg/m³),mass concentration of particles derived from Lorenz-Mie calculation of OPC scattering (μg/m³)
DateTimeUTC,F1_M11,P_M11,Q1_M11,Q2_M11,T1_M11,T2_M11,T3_M11,T4_M11,T5_M11,U1_M11,ZSPAN_M11,X0_M11,X2_M11,X1_M11
2024-06-13 09:00:00,SystemResetWarning,0829.4,4.99,000.00,030.0,029.3,000.0,038.2,031.7,016.7,0000.0,0011.68,0004.70,0004.01
2024-06-13 09:01:00,SystemResetWarning,0829.3,5.00,000.00,030.1,029.4,000.0,038.3,031.8,016.6,0000.0,0012.53,0004.68,0004.01
2024-06-13 09:02:00,SystemResetWarning,0829.3,5.00,000.00,030.1,029.5,000.0,038.3,031.9,016.7,0000.0,0012.16,0004.70,0004.01
2024-06-13 09:03:00,SystemResetWarning,0829.4,5.01,000.00,030.1,029.5,000.0,038.3,031.9,016.7,0000.0,0012.02,0004.72,0004.02
2024-06-13 09:04:00,SystemResetWarning,0829.3,5.00,000.00,030.2,029.6,000.0,038.3,032.0,016.6,0000.0,0012.08,0004.68,0004.02
2024-06-13 09:05:00,SystemResetWarning,0829.4,5.00,000.00,030.2,029.6,000.0,038.4,032.0,016.6,0000.0,0012.09,0004.67,0004.04
2024-06-13 09:06:00,SystemResetWarning,0829.4,5.00,000.00,030.3,029.7,000.0,038.4,032.0,016.5,0000.0,0011.70,0004.67,0004.05
2024-06-13 09:07:00,SystemResetWarning,0829.3,5.00,000.00,030.3,029.7,000.0,038.4,032.0,016.6,0000.0,0011.46,0004.65,0004.03
2024-06-13 09:08:00,SystemResetWarning,0829.3,5.00,000.00,030.3,029.8,000.0,038.4,032.0,016.6,0000.0,0010.40,0004.67,0004.04
2024-06-13 09:09:00,SystemResetWarning,0829.3,5.00,000.00,030.4,029.8,000.0,038.5,032.1,016.5,0000.0,0010.57,0004.72,0004.04
2024-06-13 09:10:00,SystemResetWarning,0829.4,5.00,000.00,030.4,029.8,000.0,038.5,032.1,016.5,0000.0,0010.49,0004.73,0004.03
2024-06-13 09:11:00,SystemResetWarning,0829.3,5.00,000.00,030.4,029.9,000.0,038.5,032.1,016.4,0000.0,0010.21,0004.71,0004.03
2024-06-13 09:12:00,SystemResetWarning,0829.3,5.00,000.00,030.5,029.9,000.0,038.6,032.1,016.4,0000.0,0009.08,0004.67,0004.03
2024-06-13 09:13:00,SystemResetWarning,0829.3,4.99,000.00,030.5,029.9,000.0,038.6,032.2,016.4,0000.0,0008.89,0004.60,0004.02
2024-06-13 09:14:00,SystemResetWarning,0829.3,4.99,000.00,030.5,029.9,000.0,038.6,032.2,016.3,0000.0,0008.85,0004.56,0004.01
2024-06-13 09:15:00,SystemResetWarning,0829.3,5.01,000.00,030.5,030.0,000.0,038.6,032.2,016.2,0000.0,0008.68,0004.55,0004.00
2024-06-13 09:16:00,SystemResetWarning,0829.3,5.01,000.00,030.6,030.0,000.0,038.7,032.2,016.2,0000.0,0008.52,0004.55,0003.98
2024-06-13 09:17:00,SystemResetWarning,0829.3,5.01,000.00,030.6,030.0,000.0,038.7,032.3,016.2,0000.0,0008.65,0004.55,0003.96
2024-06-13 09:18:00,SystemResetWarning,0829.3,5.00,000.00,030.6,030.0,000.0,038.7,032.3,016.2,0000.0,0008.53,0004.58,0003.96
2024-06-13 09:19:00,SystemResetWarning,0829.3,5.00,000.00,030.6,030.1,000.0,038.7,032.3,016.1,0000.0,0008.20,0004.56,0003.94
2024-06-13 09:20:00,SystemResetWarning,0829.3,4.97,000.00,030.5,028.7,000.0,038.8,031.6,016.2,0000.0,0008.10,0004.53,0003.93
2024-06-13 09:21:00,SystemResetWarning,0829.2,5.02,000.00,030.1,026.7,000.0,038.8,030.7,016.5,0000.0,0008.20,0004.52,0003.93
2024-06-13 09:22:00,SystemResetWarning,0829.2,5.00,000.00,029.8,026.7,000.0,038.8,030.6,016.8,0000.0,0008.54,0004.55,0003.94
2024-06-13 09:23:00,SystemResetWarning,0829.2,5.00,000.00,029.7,027.0,000.0,038.6,030.7,016.9,0000.0,0008.94,0004.59,0003.94
2024-06-13 09:24:00,SystemResetWarning,0829.3,5.00,000.00,029.7,027.4,000.0,038.5,030.9,017.0,0000.0,0008.98,0004.61,0003.93
2024-06-13 09:25:00,SystemResetWarning,0829.2,5.00,000.00,029.7,027.8,000.0,038.4,031.1,017.0,0000.0,0008.97,0004.61,0003.92
2024-06-13 09:26:00,SystemResetWarning,0829.2,5.00,000.00,029.8,028.1,000.0,038.4,031.3,016.9,0000.0,0009.03,0004.63,0003.93
2024-06-13 09:27:00,SystemResetWarning,0829.2,5.00,000.00,029.8,028.4,000.0,038.3,031.4,016.8,0000.0,0009.01,0004.65,0003.92
2024-06-13 09:28:00,SystemResetWarning,0829.2,5.00,000.00,029.8,028.6,000.0,038.3,031.4,016.8,0000.0,0008.80,0004.64,0003.92
2024-06-13 09:29:00,SystemResetWarning,0829.2,4.99,000.00,029.9,028.8,000.0,038.3,031.5,016.8,0000.0,0008.77,0004.62,0003.92
2024-06-13 09:30:00,SystemResetWarning,0829.2,5.00,000.00,029.9,029.0,000.0,038.3,031.6,016.8,0000.0,0009.26,0004.63,0003.92
2024-06-13 09:31:00,SystemResetWarning,0829.1,5.00,000.00,029.9,029.1,000.0,038.3,031.6,016.7,0000.0,0009.53,0004.63,0003.92
2024-06-13 09:32:00,SystemResetWarning,0829.1,5.00,000.00,030.0,029.2,000.0,038.3,031.7,016.8,0000.0,0010.31,0004.61,0003.93
2024-06-13 09:33:00,SystemResetWarning,0829.1,5.00,000.00,030.0,029.3,000.0,038.3,031.8,016.7,0000.0,0010.11,0004.60,0003.91
2024-06-13 09:34:00,SystemResetWarning,0829.1,5.00,000.00,030.1,029.4,000.0,038.3,031.8,016.6,0000.0,0009.86,0004.60,0003.90
2024-06-13 09:35:00,SystemResetWarning,0829.1,5.00,000.00,030.1,029.4,000.0,038.3,031.9,016.5,0000.0,0009.90,0004.62,0003.90
2024-06-13 09:36:00,SystemResetWarning,0829.1,4.99,000.00,030.1,029.5,000.0,038.4,031.9,016.3,0000.0,0009.91,0004.62,0003.90
2024-06-13 09:37:00,SystemResetWarning,0829.1,4.99,000.00,030.2,029.6,000.0,038.4,031.9,016.4,0000.0,0009.91,0004.61,0003.90
2024-06-13 09:38:00,SystemResetWarning,0829.1,5.00,000.00,030.2,029.6,000.0,038.4,032.0,016.3,0000.0,0009.97,0004.61,0003.90
2024-06-13 09:39:00,SystemResetWarning,0829.1,5.00,000.00,030.2,029.7,000.0,038.4,032.0,016.2,0000.0,0009.98,0004.61,0003.90
2024-06-13 09:40:00,SystemResetWarning,0829.1,5.02,000.00,030.3,029.7,000.0,038.4,032.0,016.4,0000.0,0010.03,0004.63,0003.90
2024-06-13 09:41:00,SystemResetWarning,0829.1,5.00,000.00,030.3,029.7,000.0,038.5,032.0,016.2,0000.0,0009.56,0004.60,0003.91
2024-06-13 09:42:00,SystemResetWarning,0829.1,4.99,000.00,030.4,029.8,000.0,038.5,032.0,016.1,0000.0,0009.77,0004.59,0003.90
2024-06-13 09:43:00,SystemResetWarning,0829.1,5.00,000.00,030.4,029.8,000.0,038.5,032.1,016.1,0000.0,0008.97,0004.60,0003.89
2024-06-13 09:44:00,SystemResetWarning,0829.1,4.99,000.00,030.4,029.8,000.0,038.6,032.1,016.0,0000.0,0008.86,0004.58,0003.88
2024-06-13 09:45:00,SystemResetWarning,0829.1,5.00,000.00,030.4,029.9,000.0,038.6,032.1,016.0,0000.0,0008.87,0004.56,0003.89
2024-06-13 09:46:00,SystemResetWarning,0829.1,5.00,000.00,030.5,029.9,000.0,038.6,032.1,016.0,0000.0,0008.75,0004.54,0003.89
2024-06-13 09:47:00,SystemResetWarning,0829.0,5.01,000.00,030.5,029.9,000.0,038.6,032.2,016.1,0000.0,0008.79,0004.53,0003.89
2024-06-13 09:48:00,SystemResetWarning,0829.0,5.01,000.00,030.5,030.0,000.0,038.6,032.2,015.8,0000.0,0009.01,0004.55,0003.89
2024-06-13 09:49:00,SystemResetWarning,0828.9,5.00,000.00,030.6,030.0,000.0,038.7,032.2,015.7,0000.0,0008.97,0004.56,0003.90
2024-06-13 09:50:00,SystemResetWarning,0828.9,5.00,000.00,030.6,030.0,000.0,038.7,032.3,015.7,0000.0,0009.40,0004.60,0003.90
2024-06-13 09:51:00,SystemResetWarning,0828.9,4.99,000.00,030.6,030.0,000.0,038.7,032.3,015.6,0000.0,0009.93,0004.62,0003.90
2024-06-13 09:52:00,SystemResetWarning,0828.9,4.99,000.00,030.6,030.1,000.0,038.7,032.3,015.6,0000.0,0010.11,0004.64,0003.91
2024-06-13 09:53:00,SystemResetWarning,0828.9,5.00,000.00,030.7,030.1,000.0,038.8,032.3,015.5,0000.0,0009.80,0004.65,0003.90
2024-06-13 09:54:00,SystemResetWarning,0829.0,5.01,000.00,030.7,030.1,000.0,038.8,032.4,015.5,0000.0,0009.80,0004.66,0003.91
2024-06-13 09:55:00,SystemResetWarning,0828.9,5.00,000.00,030.7,030.1,000.0,038.8,032.3,015.4,0000.0,0010.38,0004.67,0003.92
2024-06-13 09:56:00,SystemResetWarning,0828.9,4.98,000.00,030.5,028.0,000.0,038.9,031.4,015.6,0000.0,0011.10,0004.71,0003.93
2024-06-13 09:57:00,SystemResetWarning,0828.8,5.03,000.00,030.1,026.6,000.0,038.9,030.7,016.0,0000.0,0011.47,0004.74,0003.94
2024-06-13 09:58:00,SystemResetWarning,0828.8,5.00,000.00,029.9,026.8,000.0,038.8,030.6,016.2,0000.0,0011.97,0004.74,0003.94
2024-06-13 09:59:00,SystemResetWarning,0828.9,5.00,000.00,029.8,027.2,000.0,038.7,030.8,016.3,0000.0,0012.19,0004.72,0003.94
